Regional Weather Roundup
Issued by NWS

Home | Current Version | Previous Version | Graphics & Text | Print | Product List | Glossary Off
Versions: 1 2 3 4 5 6 7 8 9 10 11 12 13 14 15 16 17 18 19 20 21 22 23 24 25 26 27 28 29 30 31 32 33 34 35 36 37 38 39 40 41 42 43 44 45 46 47 48 49 50

000
ASUS43 KTOP 030508
RWRKS

WEATHER ROUNDUP FOR KANSAS
NATIONAL WEATHER SERVICE GOODLAND KS
1100 PM CST MON MAR 02 2015

NOTE:  "FAIR" INDICATES FEW OR NO CLOUDS BELOW 12,000 FEET WITH NO
SIGNIFICANT WEATHER AND/OR OBSTRUCTIONS TO VISIBILITY.

KSZ001>006-013>018-027>032-041>047-030600-
NORTHWEST KANSAS

CITY           SKY/WX    TMP DP  RH WIND       PRES   REMARKS
GOODLAND       MOCLDY    32  30  92 S25G32    29.57F WCI  19
HAYS           FAIR      30  18  59 S15       29.80F WCI  19
HILL CITY      MOCLDY    29  23  78 S15       29.76F WCI  18
RUSSELL        FAIR      30  25  81 S18G24    29.80F WCI  18
$$

KSZ061>065-074>080-084>089-030600-
SOUTHWEST KANSAS

CITY           SKY/WX    TMP DP  RH WIND       PRES   REMARKS
DODGE CITY     FAIR      34  28  79 S23G31    29.78F WCI  22
ELKHART          N/A     37  26  64 S21         N/A  WCI  26
GARDEN CITY    FAIR      34  30  85 S26G38    29.71F WCI  21
GREAT BEND     FAIR      30  23  74 S24G30    29.82F WCI  16
LIBERAL        FAIR      36  30  80 S22       29.81F WCI  24
PRATT          FAIR      32  28  86 S20G30    29.88F WCI  20
$$

KSZ066>073-081>083-090>101-030600-
SOUTHEAST KANSAS

CITY           SKY/WX    TMP DP  RH WIND       PRES   REMARKS
CHANUTE        CLOUDY    34  33  96 S14       30.04F FOG     WCI  25
COFFEYVILLE    CLOUDY    35  33  92 S9        30.06F FOG
HUTCHINSON     CLOUDY    32  27  81 S21G26    29.92F HAZE    WCI  20
MEDICINE LODGE   N/A     32  28  85 S9        29.91F
NEWTON         CLOUDY    30  27  86 S16G22    29.96S WCI  19
PARSONS        CLOUDY    35  34  96 S12       30.07F FOG     WCI  27
WICHITA INTL   CLOUDY    32  30  92 S23G30    29.96F FOG     WCI  19
WICHITA JABRA  CLOUDY    31  31 100 S16       29.97F FOG     WCI  20
WICHITA MCCONL CLOUDY    32  32 100 S18       29.97S FOG     WCI  20
WINFIELD       CLOUDY    33  33 100 S16       30.01F FOG     WCI  23
$$

KSZ007>012-019>026-033>040-048>060-102>105-030600-
NORTHEAST KANSAS

CITY           SKY/WX    TMP DP  RH WIND       PRES   REMARKS
CONCORDIA      FAIR      31  26  82 SE13      29.88F WCI  21
EMPORIA        CLOUDY    31  31 100 S15       29.98F FOG     WCI  20
LAWRENCE       CLOUDY    34  25  69 S17       30.03S WCI  23
MANHATTAN      CLOUDY    33  30  88 S13       29.95F FOG     WCI  24
MARYSVILLE     CLOUDY    32  27  80 S10       29.91F WCI  24
OLATHE IND     CLOUDY    33  26  75 S13       30.02F WCI  24
OLATHE EXE     CLOUDY    33  27  78 S14       30.01F WCI  23
SALINA         FAIR      33  26  75 S14G20    29.91F WCI  23
TOPEKA BILLARD CLOUDY    34  26  72 S13       30.02F WCI  25
TOPEKA FORBES  CLOUDY    34  27  75 S14G23    29.98F WCI  25
$$



USA.gov is the U.S. government's official web portal to all federal, state and local government web resources and services.